Regional Weather Roundup
Issued by NWS

Home | Current Version | Previous Version | Graphics & Text | Print | Product List | Glossary Off
Versions: 1 2 3 4 5 6 7 8 9 10 11 12 13 14 15 16 17 18 19 20 21 22 23 24 25 26 27 28 29 30 31 32 33 34 35 36 37 38 39 40 41 42 43 44 45 46 47 48 49 50

000
ASUS43 KMKX 030010
RWRWI

WISCONSIN REGIONAL WEATHER ROUNDUP
NATIONAL WEATHER SERVICE MILWAUKEE/SULLIVAN WI
600 PM CST MON MAR 02 2015

NOTE: "FAIR" INDICATES FEW OR NO CLOUDS BELOW 12,000 FEET WITH NO
SIGNIFICANT WEATHER AND/OR OBSTRUCTIONS TO VISIBILITY.

WIZ001-002-006>008-014>016-023>028-030100-
NORTHWEST WISCONSIN

CITY           SKY/WX    TMP DP  RH WIND       PRES   REMARKS
SUPERIOR ARPT  CLEAR     25   5  41 SW10      30.18F WCI  15
6HR MIN TEMP:  25; 6HR MAX TEMP:  30;

ASHLAND        CLEAR     25   1  35 S6        30.20F WCI  18
6HR MIN TEMP:  24; 6HR MAX TEMP:  29;

HAYWARD        CLEAR     21   3  45 S12       30.20F WCI   9
6HR MIN TEMP:  21; 6HR MAX TEMP:  24; 6HR PCP: TRACE;

SIREN          CLEAR     22   6  50 S7        30.20F WCI  13
6HR MIN TEMP:  22; 6HR MAX TEMP:  27;

CUMBERLAND     FAIR      19   5  53 SE7       30.20F WCI  10
RICE LAKE      FAIR      21   6  52 SE7       30.23F WCI  13
6HR MIN TEMP:  21; 6HR MAX TEMP:  25;

CHETEK         FAIR      22   7  51 SE5       30.23F WCI  16
6HR MIN TEMP:  22; 6HR MAX TEMP:  25;

LADYSMITH      PTCLDY    22   5  48 S6        30.24F WCI  15
6HR MIN TEMP:  22; 6HR MAX TEMP:  26;

EAU CLAIRE     PTCLDY    24   5  44 SE6       30.24F WCI  17
6HR MIN TEMP:  21; 6HR MAX TEMP:  26;

MENOMONIE      MOCLDY    24   8  51 SE3       30.24F
6HR MIN TEMP:  23; 6HR MAX TEMP:  27;

NEW RICHMOND   CLOUDY    22   7  53 SE8       30.22F WCI  12
6HR MIN TEMP:  22; 6HR MAX TEMP:  26;

OSCEOLA        PTCLDY    23   8  52 S8        30.24F WCI  14
6HR MIN TEMP:  23; 6HR MAX TEMP:  28;

$$

WIZ003>005-009-010-017-018-030100-
NORTH CENTRAL WISCONSIN

CITY           SKY/WX    TMP DP  RH WIND       PRES   REMARKS
MANITOWISH WTR CLEAR     21  -1  38 SW5       30.18F WCI  14
6HR MIN TEMP:  20; 6HR MAX TEMP:  25;

ARBOR VITAE    CLEAR     23  -1  34 SW5       30.19F WCI  17
6HR MIN TEMP:  22; 6HR MAX TEMP:  27;

WOODRUFF       CLEAR     23  -1  34 SW5       30.19F WCI  17
6HR MIN TEMP:  22; 6HR MAX TEMP:  27;

RHINELANDER    CLEAR     22   4  46 S8        30.21F WCI  12
6HR MIN TEMP:  21; 6HR MAX TEMP:  26;

EAGLE RIVER    CLEAR     23  -3  31 CALM      30.19F
6HR MIN TEMP:  21; 6HR MAX TEMP:  26;

LAND O LAKES   CLEAR     23  -2  33 S5        30.19F WCI  17
6HR MIN TEMP:  23; 6HR MAX TEMP:  28;

PHILLIPS       CLEAR     20   1  41 SW6       30.20F WCI  13
6HR MIN TEMP:  20; 6HR MAX TEMP:  24;

TOMAHAWK       CLEAR     19   4  51 CALM      30.23F
6HR MIN TEMP:  19; 6HR MAX TEMP:  27;

MEDFORD        CLEAR     18   4  53 CALM      30.22F
6HR MIN TEMP:  17; 6HR MAX TEMP:  21;

MERRILL        CLEAR     20   3  48 SW3       30.25F
6HR MIN TEMP:  19; 6HR MAX TEMP:  26;

$$

WIZ029-030-035-036-043>047-030100-
CENTRAL WISCONSIN

CITY           SKY/WX    TMP DP  RH WIND       PRES   REMARKS
WAUSAU         CLEAR     21   0  39 CALM      30.24F
6HR MIN TEMP:  20; 6HR MAX TEMP:  26;

MOSINEE        CLEAR     21   0  39 SW3       30.27F
MARSHFIELD     PTCLDY    22   6  50 SE5       30.25F WCI  16
6HR MIN TEMP:  20; 6HR MAX TEMP:  27;

STEVENS POINT  PTCLDY    22   5  48 CALM      30.28F
6HR MIN TEMP:  20; 6HR MAX TEMP:  25;

WAUPACA        CLEAR     27   4  38 E5        30.31F WCI  21
6HR MIN TEMP:  27; 6HR MAX TEMP:  32;

WAUTOMA        MOCLDY    27   7  42 SE6       30.31F WCI  21
6HR MIN TEMP:  25; 6HR MAX TEMP:  29;

WISC RAPIDS    PTCLDY    25   1  35 S5        30.29F WCI  19
6HR MIN TEMP:  22; 6HR MAX TEMP:  28;

CAMP DOUGLAS   MOCLDY    27   9  46 SE7       30.27F WCI  19
$$

WIZ011>013-019>022-031-037>040-048>050-030100-
NORTHEAST WISCONSIN

CITY           SKY/WX    TMP DP  RH WIND       PRES   REMARKS
ANTIGO         CLEAR     15   1  52 SW7       30.24F WCI   5
6HR MIN TEMP:  15; 6HR MAX TEMP:  23;

SHAWANO        CLEAR     26   7  45 CALM      30.31F
6HR MIN TEMP:  26; 6HR MAX TEMP:  30;

OCONTO         CLEAR     23  10  56 S6        30.33F WCI  16
6HR MIN TEMP:  23; 6HR MAX TEMP:  28;

STURGEON BAY   CLEAR     21  12  68 S6        30.35F WCI  14
6HR MIN TEMP:  21; 6HR MAX TEMP:  27;

GREEN BAY      CLEAR     24  13  62 S7        30.34F WCI  16
6HR MIN TEMP:  24; 6HR MAX TEMP:  27;

MANITOWOC      CLEAR     24  16  71 S9        30.36F WCI  14
6HR MIN TEMP:  24; 6HR MAX TEMP:  32;

APPLETON       PTCLDY    21  10  63 S7        30.32F WCI  13
CLINTONVILLE   CLEAR     25   7  46 CALM      30.31F
OSHKOSH        MOCLDY    22  13  68 S3        30.32F
6HR MIN TEMP:  22; 6HR MAX TEMP:  26;

$$

WIZ032>034-041-042-053>061-030100-
SOUTHWEST WISCONSIN

CITY           SKY/WX    TMP DP  RH WIND       PRES   REMARKS
LA CROSSE      CLOUDY    27  10  49 S7        30.28F WCI  19
6HR MIN TEMP:  24; 6HR MAX TEMP:  27;

SPARTA         CLOUDY    26   7  45 CALM      30.29F
6HR MIN TEMP:  24; 6HR MAX TEMP:  29;

VIROQUA        CLOUDY    25  14  62 S9        30.25F WCI  16
6HR MIN TEMP:  21; 6HR MAX TEMP:  27;

BOSCOBEL       CLOUDY    27  13  55 VRB3      30.32F
6HR MIN TEMP:  25; 6HR MAX TEMP:  29;

PRAIRIE DU CHI CLOUDY    27  13  55 SE6       30.31F WCI  20
6HR MIN TEMP:  24; 6HR MAX TEMP:  28;

PLATTEVILLE    CLOUDY    23  16  73 E9        30.30F WCI  13
6HR MIN TEMP:  22; 6HR MAX TEMP:  25;

$$

WIZ056-057-062-063-064-067-068-030100-
SOUTH CENTRAL WISCONSIN

CITY           SKY/WX    TMP DP  RH WIND       PRES   REMARKS
REEDSBURG      CLOUDY    26  10  49 CALM      30.29F
6HR MIN TEMP:  22; 6HR MAX TEMP:  27;

BARABOO/DELLS  CLOUDY    26   9  48 CALM      30.29F
6HR MIN TEMP:  24; 6HR MAX TEMP:  27;

LONE ROCK      CLOUDY    25  10  53 S6        30.32F WCI  18
6HR MIN TEMP:  24; 6HR MAX TEMP:  29;

MINERAL POINT  MOCLDY    27  14  59 SE6       30.29F WCI  20
MADISON        CLOUDY    26  11  52 S8        30.32F WCI  18
6HR MIN TEMP:  23; 6HR MAX TEMP:  28;

MIDDLETON      CLOUDY    27  11  51 S8        30.32F WCI  18
6HR MIN TEMP:  25; 6HR MAX TEMP:  31;

WATERTOWN      MOCLDY    25  11  54 S6        30.33F WCI  18
6HR MIN TEMP:  25; 6HR MAX TEMP:  27;

MONROE         CLOUDY    23  18  80 SE6       30.31F WCI  16
JANESVILLE     MOCLDY    27  16  63 VRB6      30.34  WCI  20
$$

WIZ051-052-058>065-066-070>072-030100-
SOUTHEAST WISCONSIN

CITY           SKY/WX    TMP DP  RH WIND       PRES   REMARKS
MILWAUKEE      MOCLDY    26   9  48 S8        30.37F WCI  18
6HR MIN TEMP:  25; 6HR MAX TEMP:  28;

WAUKESHA       MOCLDY    25   7  46 S7        30.35F WCI  17
MILWAUKEE/TIMM CLEAR     27   9  46 S8        30.36F WCI  18
RACINE         PTCLDY    25  14  63 S8        30.38F WCI  16
6HR MIN TEMP:  25; 6HR MAX TEMP:  28;

BURLINGTON     MOCLDY    22  11  61 SW3       30.35F
6HR MIN TEMP:  22; 6HR MAX TEMP:  27;

KENOSHA        MOCLDY    24  15  68 SE7       30.36F WCI  16
6HR MIN TEMP:  24; 6HR MAX TEMP:  28;

FOND DU LAC    MOCLDY    26  11  52 S8        30.33F WCI  18
6HR MIN TEMP:  24; 6HR MAX TEMP:  28;

SHEBOYGAN      PTCLDY    24  14  65 S8        30.35F WCI  15
6HR MIN TEMP:  24; 6HR MAX TEMP:  28;

WEST BEND      MOCLDY    25  14  63 SE5       30.33F WCI  19
JUNEAU         CLOUDY    25   9  52 S6        30.33F WCI  18
6HR MIN TEMP:  23; 6HR MAX TEMP:  27;

$$

LSZ147-162-030100-
LAKE SUPERIOR

STATION/POSITION TIME  TEMP    WIND        PRES    WAVE
                       AIR SEA DIR/SP/G            HT/PER
                 (UTC) (F)     (DEG/KT/KT) (MB)    (FT/S)
DEVILS ISLAND    0000   25     250/  2/  2 1023.5F
PORT WING        2300   29     200/  8/ 14 1023.0
SAXON HARBOR     2300   30     200/  3/  9 1023.7F
$$

LMZ867-665-643>646-030100-
LAKE MICHIGAN

STATION/POSITION TIME  TEMP    WIND        PRES    WAVE
                       AIR SEA DIR/SP/G            HT/PER



USA.gov is the U.S. government's official web portal to all federal, state and local government web resources and services.